TimeEST,TemperatureF,Dew PointF,Humidity,Sea Level PressureIn,VisibilityMPH,Wind Direction,Wind SpeedMPH,Gust SpeedMPH,PrecipitationIn,Events,Conditions,WindDirDegrees,DateUTC
12:53 AM,33.1,27.0,78,30.25,9.0,WNW,3.5,-,N/A,,Overcast,300,2012-12-15 05:53:00
1:53 AM,33.1,26.1,75,30.25,10.0,NNW,3.5,-,N/A,,Overcast,330,2012-12-15 06:53:00
2:53 AM,33.1,26.1,75,30.26,10.0,NW,3.5,-,N/A,,Mostly Cloudy,320,2012-12-15 07:53:00
3:12 AM,32.0,24.8,75,30.21,10.0,NNW,3.5,-,N/A,,Partly Cloudy,330,2012-12-15 08:12:00
3:53 AM,30.9,25.0,79,30.25,10.0,Calm,Calm,-,N/A,,Clear,0,2012-12-15 08:53:00
4:53 AM,28.0,24.1,85,30.27,8.0,Calm,Calm,-,N/A,,Clear,0,2012-12-15 09:53:00
5:53 AM,28.9,25.0,85,30.26,7.0,WSW,3.5,-,N/A,,Clear,250,2012-12-15 10:53:00
6:53 AM,30.0,26.1,85,30.27,8.0,NW,3.5,-,N/A,,Clear,310,2012-12-15 11:53:00
7:53 AM,32.0,26.1,79,30.28,8.0,Calm,Calm,-,N/A,,Clear,0,2012-12-15 12:53:00
8:53 AM,28.9,26.1,89,30.30,2.5,West,3.5,-,N/A,,Clear,260,2012-12-15 13:53:00
9:05 AM,30.2,26.6,86,30.24,7.0,Calm,Calm,-,N/A,,Clear,0,2012-12-15 14:05:00
9:14 AM,32.0,28.4,87,30.24,5.0,Calm,Calm,-,N/A,,Clear,0,2012-12-15 14:14:00
9:53 AM,36.0,28.0,73,30.30,9.0,Calm,Calm,-,N/A,,Clear,0,2012-12-15 14:53:00
10:53 AM,36.0,28.0,73,30.29,10.0,East,3.5,-,N/A,,Partly Cloudy,100,2012-12-15 15:53:00
11:53 AM,37.0,27.0,67,30.26,10.0,South,3.5,-,N/A,,Clear,170,2012-12-15 16:53:00
12:53 PM,37.0,27.0,67,30.24,10.0,South,3.5,-,N/A,,Clear,170,2012-12-15 17:53:00
1:53 PM,37.9,27.0,65,30.22,10.0,SSE,4.6,-,N/A,,Clear,160,2012-12-15 18:53:00
2:53 PM,37.9,26.1,62,30.19,10.0,SE,9.2,-,N/A,,Clear,130,2012-12-15 19:53:00
3:53 PM,37.9,27.0,65,30.19,10.0,SSE,6.9,-,N/A,,Clear,150,2012-12-15 20:53:00
4:53 PM,35.1,27.0,72,30.18,10.0,SE,5.8,-,N/A,,Clear,130,2012-12-15 21:53:00
5:53 PM,35.1,27.0,72,30.17,10.0,SE,5.8,-,N/A,,Clear,140,2012-12-15 22:53:00
6:53 PM,36.0,27.0,70,30.17,10.0,SSE,8.1,-,N/A,,Clear,150,2012-12-15 23:53:00
7:53 PM,35.1,27.0,72,30.15,10.0,SE,10.4,-,N/A,,Partly Cloudy,140,2012-12-16 00:53:00
8:53 PM,36.0,27.0,70,30.15,10.0,SSE,10.4,-,N/A,,Overcast,150,2012-12-16 01:53:00
9:53 PM,36.0,27.0,70,30.12,10.0,SE,8.1,-,N/A,,Overcast,140,2012-12-16 02:53:00
10:53 PM,36.0,27.0,70,30.12,10.0,SSE,8.1,-,N/A,,Overcast,150,2012-12-16 03:53:00
11:53 PM,35.1,27.0,72,30.11,10.0,SSE,10.4,-,N/A,,Overcast,150,2012-12-16 04:53:00